Kuchera_Ratio
14.8 14.9 15.0 15.0 15.1 15.2 15.4 15.6 15.7 15.8 15.9 16.0 16.1 16.1 16.2 16.3 16.3 16.6 16.8 16.8 16.6 16.5 16.4 16.3 16.5 16.2 15.4 14.0 14.5 13.9 13.6 13.2 12.9 12.5 12.4 12.3 12.5 12.6 12.1 12.4 12.8 13.5 13.0 10.6 8.9 9.0 9.3 8.9 9.6 10.0 9.5 10.1 9.8 10.1 8.7 7.3 8.9 9.3 9.3 9.0 8.8 8.7 5.7
15.2 15.3 15.4 15.5 15.7 15.8 16.0 16.2 16.3 16.5 16.6 16.6 16.8 16.9 17.0 17.1 17.1 17.3 17.4 17.5 17.6 17.5 17.5 17.4 17.3 17.1 17.1 16.0 15.7 14.5 14.5 14.0 14.1 13.8 13.9 13.6 13.5 13.7 13.7 12.7 13.8 13.6 13.6 13.8 12.0 12.0 8.8 10.8 9.0 11.2 9.5 11.0 10.2 10.2 9.2 11.2 9.1 10.2 10.5 10.3 10.2 10.2 9.7
15.6 15.6 15.8 15.9 16.2 16.4 16.6 16.8 16.9 17.1 17.2 17.2 17.3 17.4 17.5 17.6 17.8 17.9 17.9 18.0 18.1 18.3 18.4 18.3 18.1 18.1 18.0 17.7 17.5 16.5 15.9 15.2 15.6 15.0 15.0 14.9 14.1 14.5 14.3 14.1 14.0 14.6 15.0 14.2 13.7 12.3 13.0 12.5 11.9 12.3 11.8 11.0 11.1 11.3 9.4 10.9 10.7 11.1 11.1 11.2 11.0 11.1 11.3
15.9 16.0 16.2 16.4 16.7 16.9 17.1 17.2 17.4 17.6 17.8 17.9 17.9 18.0 18.0 18.1 18.3 18.4 18.5 18.6 18.6 18.7 18.9 18.9 19.0 18.6 19.0 18.8 18.5 18.2 18.0 17.5 17.4 16.6 15.9 15.5 15.1 15.1 15.3 15.0 14.9 14.9 15.5 15.1 15.7 13.7 13.8 13.6 13.9 13.1 12.4 12.3 12.4 12.6 12.8 12.7 12.2 10.3 10.8 11.7 11.7 11.6 11.8
16.3 16.4 16.7 17.0 17.2 17.3 17.5 17.6 17.8 18.0 18.2 18.4 18.5 18.6 18.7 18.7 18.8 18.9 19.0 19.1 19.3 19.3 19.4 19.5 19.5 19.5 19.2 19.0 19.0 17.9 18.0 18.0 18.6 17.6 16.8 16.5 16.0 16.0 15.7 15.6 15.5 15.8 15.5 16.3 16.7 15.8 14.7 14.5 14.4 14.1 14.1 13.5 14.1 14.0 14.0 13.8 13.5 13.0 13.2 12.8 11.1 11.5 11.7
16.8 17.1 17.3 17.6 17.7 17.8 18.0 18.1 18.3 18.5 18.7 18.9 19.0 19.1 19.2 19.3 19.4 19.5 19.5 19.6 19.8 19.9 20.0 20.0 20.0 20.0 19.9 18.7 18.2 18.4 18.2 17.7 18.2 18.1 18.0 17.6 16.8 16.5 16.3 16.4 16.3 16.0 16.4 16.6 16.8 16.5 16.6 15.3 15.5 15.2 14.8 14.5 14.2 14.7 14.7 14.1 13.9 14.0 13.9 13.7 12.9 12.8 11.0
17.2 17.6 17.8 18.0 18.2 18.4 18.6 18.7 18.9 19.0 19.2 19.4 19.7 19.8 19.8 19.8 19.8 19.9 19.9 20.1 20.3 20.4 20.6 20.7 20.6 20.6 20.6 20.7 19.6 19.1 18.8 18.5 18.5 17.9 18.5 17.8 17.5 16.9 17.1 17.2 17.1 16.7 16.9 17.0 17.1 16.8 16.4 16.4 15.7 15.5 16.0 14.5 14.4 14.6 14.7 15.3 15.1 14.6 14.7 15.0 14.9 14.4 13.9
17.5 17.9 18.2 18.4 18.6 18.9 19.1 19.4 19.6 19.8 19.8 20.0 20.3 20.6 20.6 20.5 20.5 20.4 20.4 20.4 20.6 20.8 21.1 21.3 21.3 21.3 21.3 21.4 21.4 21.4 20.2 19.4 18.9 18.1 18.3 17.5 17.6 17.6 17.7 17.9 17.5 17.6 17.4 17.4 17.4 17.5 17.3 16.6 16.5 16.0 15.5 15.1 15.4 15.6 15.3 15.9 16.7 16.6 16.1 15.8 15.7 15.6 15.3
18.1 18.3 18.5 18.8 19.2 19.5 19.8 20.1 20.4 20.7 20.8 20.8 20.9 21.1 21.3 21.3 21.1 21.2 21.1 20.9 20.9 21.0 21.3 21.7 21.9 21.9 21.8 21.9 18.1 17.3 17.6 18.0 17.8 19.2 19.8 18.9 18.1 18.2 18.1 18.2 18.2 18.2 18.2 18.2 17.9 18.0 17.2 17.4 17.2 16.8 16.8 16.8 16.7 16.9 17.3 17.1 17.5 17.4 17.2 17.0 16.4 16.3 16.4
18.9 19.1 19.3 19.5 19.7 20.0 20.3 20.7 21.1 21.4 20.9 20.5 21.7 21.7 21.1 20.5 21.3 21.9 21.9 21.8 21.6 21.4 21.5 21.8 22.3 22.3 18.4 18.3 18.4 18.4 18.4 18.4 18.3 18.0 19.2 20.4 19.4 18.9 19.0 19.0 19.1 19.0 18.8 18.8 19.1 18.6 18.1 18.7 18.6 17.9 17.6 17.8 17.6 17.4 17.0 17.4 17.3 18.0 17.4 17.4 17.1 16.9 17.3
19.7 19.9 20.2 20.4 20.5 20.6 20.8 21.0 21.4 21.8 19.6 17.6 16.8 19.1 21.1 20.9 20.7 21.3 22.1 22.5 22.4 22.3 22.2 22.3 22.5 22.0 20.1 20.3 20.3 22.5 19.3 19.3 19.0 18.7 18.4 18.0 18.0 18.1 19.4 20.2 20.2 19.9 19.1 19.4 19.4 18.6 18.8 19.1 19.1 18.3 17.9 18.3 17.6 17.8 18.1 18.2 18.3 18.5 18.7 18.6 18.3 19.8 17.8
20.2 20.4 20.7 21.0 21.1 21.3 21.5 21.5 21.7 21.0 18.6 17.7 17.0 17.6 19.6 20.7 20.4 20.3 20.7 21.8 22.7 22.7 22.7 22.7 22.5 21.5 21.0 21.3 21.6 23.3 23.5 23.0 20.4 20.0 19.6 19.3 19.1 18.9 18.5 18.2 19.3 20.0 20.2 19.7 20.0 19.6 19.1 19.0 19.4 19.1 19.0 18.5 18.6 18.2 18.7 18.6 19.0 19.1 19.2 19.5 19.5 19.2 19.0
20.5 20.7 21.0 21.3 21.5 21.7 21.9 21.9 22.2 21.5 18.9 17.8 17.2 16.5 18.3 20.0 20.0 20.2 20.5 20.8 21.2 21.8 22.5 23.2 23.5 23.6 22.9 22.8 20.5 21.1 23.9 23.9 24.0 22.4 21.0 20.7 20.2 20.0 19.7 19.7 19.2 18.8 19.8 20.4 21.5 20.9 20.4 19.4 19.5 19.6 19.0 18.7 19.2 18.8 20.2 19.5 20.0 20.1 20.2 20.2 20.2 20.1 19.8
20.7 20.8 21.2 21.5 21.8 21.8 21.9 22.0 22.2 22.1 19.1 17.9 17.2 16.8 17.2 20.4 20.3 20.3 20.5 20.8 21.2 21.9 23.0 24.0 24.8 25.0 24.7 24.0 24.0 24.5 24.7 24.7 24.7 24.5 24.3 24.2 24.1 24.0 24.0 21.4 20.6 20.6 20.5 20.7 21.8 22.0 22.5 20.6 20.3 20.8 19.8 19.0 18.7 20.5 20.8 21.0 20.8 20.8 20.9 21.0 20.8 19.5 20.4
21.2 21.3 21.4 21.8 22.1 22.1 22.1 22.3 22.6 21.7 20.0 18.3 17.5 16.9 18.2 21.4 22.6 22.7 22.9 22.8 23.4 24.2 25.0 25.5 25.5 25.8 25.3 24.6 24.1 24.4 24.9 25.2 25.3 25.4 25.2 24.8 24.5 24.2 24.1 24.1 24.3 24.5 24.6 24.8 24.7 23.6 22.2 21.0 20.0 20.0 19.7 19.6 18.9 19.0 19.3 19.5 20.5 21.0 20.8 20.8 21.2 21.5 21.4
22.3 22.4 22.4 22.4 22.7 22.7 22.5 22.7 23.3 22.0 20.9 19.3 17.9 17.6 20.5 23.9 25.0 25.1 24.9 24.9 25.4 25.8 25.9 25.9 25.9 25.8 25.7 25.4 24.7 23.9 22.2 22.6 25.6 25.7 26.1 25.8 25.3 25.0 24.5 24.2 22.7 21.7 20.2 21.0 21.0 20.8 22.3 21.5 19.8 18.5 18.9 18.5 18.2 18.9 18.9 18.6 18.5 19.3 20.5 21.1 21.7 21.8 21.1
23.5 23.6 23.7 23.5 23.6 23.7 23.4 23.2 23.7 22.7 21.7 20.9 18.5 19.4 22.6 25.3 25.4 25.4 25.6 25.7 25.8 25.9 26.0 26.1 26.0 25.8 25.9 25.9 25.3 24.1 22.6 22.1 22.2 25.9 26.2 26.4 26.3 25.9 25.4 24.8 24.6 23.7 21.3 19.6 19.0 18.6 18.2 18.2 18.2 18.2 17.6 17.1 17.1 19.4 20.5 21.0 20.8 21.3 20.0 21.5 22.4 21.8 22.0
24.2 24.3 24.5 24.6 24.5 24.8 24.6 24.2 24.3 23.1 22.5 21.5 19.9 20.5 22.5 24.4 25.8 25.8 25.9 26.0 26.1 26.3 26.5 26.3 24.0 23.8 25.6 26.2 25.9 24.1 23.0 22.2 23.1 26.0 26.1 26.3 26.5 27.0 26.3 25.7 25.6 25.8 24.5 24.0 22.9 22.6 22.2 22.0 21.9 21.3 20.8 20.4 19.7 20.4 21.1 23.1 24.3 22.2 22.1 22.7 21.6 22.7 21.9
24.7 24.7 24.9 25.2 25.2 24.3 24.5 25.1 24.7 23.5 23.0 22.0 20.9 21.0 23.6 24.5 26.5 26.5 26.5 26.6 26.6 26.8 27.0 26.8 25.4 24.3 24.2 24.9 24.8 23.5 22.4 21.6 23.1 26.3 26.3 26.4 26.4 26.0 26.9 26.4 26.6 26.9 26.8 26.7 26.6 26.5 26.6 26.8 24.5 25.1 25.2 24.5 22.8 22.2 22.4 23.0 23.4 23.1 24.3 24.6 23.5 22.5 22.0
25.3 25.1 25.1 24.9 25.0 25.6 26.0 26.4 26.4 25.5 24.0 23.2 22.5 21.8 22.9 24.6 26.4 26.6 26.8 27.1 27.0 27.3 27.5 27.4 27.3 26.1 24.7 24.1 23.6 23.0 22.1 21.6 21.2 24.0 24.9 24.4 24.9 25.5 26.6 26.9 27.2 27.5 27.5 27.4 27.2 27.1 27.1 27.1 27.1 25.4 25.6 25.0 24.7 24.7 24.5 24.1 23.8 24.6 24.4 24.9 24.7 24.0 23.0
25.5 25.5 25.4 25.3 26.2 26.5 26.7 26.8 26.8 26.3 24.5 24.0 23.6 23.0 23.4 25.6 26.2 26.8 27.2 27.6 27.6 27.8 28.1 27.8 27.5 27.3 26.1 24.8 24.0 23.4 22.7 21.5 20.9 21.2 22.5 23.2 24.3 24.3 24.0 24.7 27.1 27.3 24.0 27.0 27.7 27.6 27.6 27.6 27.4 27.3 27.2 27.0 26.8 26.7 25.1 25.5 25.4 25.1 26.6 25.9 26.2 26.0 25.3
25.9 26.1 26.2 26.4 26.8 27.1 27.3 26.5 25.3 26.3 25.3 24.5 24.0 23.4 23.3 24.9 26.2 25.9 27.5 28.1 28.0 28.2 28.2 27.9 27.4 27.4 27.0 25.2 24.5 24.0 23.1 22.2 22.0 21.8 22.7 23.0 21.4 21.0 21.3 22.5 23.5 25.6 27.4 27.9 28.0 28.1 28.0 27.8 27.6 27.6 27.6 27.6 27.5 27.4 27.6 26.3 26.8 26.4 26.1 25.8 26.2 26.2 26.9
26.6 26.9 26.9 27.0 27.3 27.6 27.8 27.9 27.3 25.7 26.2 25.3 24.6 24.1 23.9 23.8 24.5 24.0 25.0 27.3 27.5 27.1 27.2 27.5 27.3 27.5 26.1 25.0 24.7 24.1 23.4 23.2 23.1 23.4 24.5 22.4 21.8 21.6 21.7 22.3 24.5 25.2 27.2 28.4 28.7 28.9 28.5 27.9 27.7 27.8 27.9 28.0 28.1 28.2 28.2 28.1 27.5 27.1 26.6 26.6 25.9 24.9 24.3
27.5 27.9 27.9 27.8 27.8 28.0 28.2 28.3 28.3 27.1 26.0 25.9 25.1 24.7 24.2 24.0 23.8 23.6 25.3 26.5 27.3 27.0 27.5 27.2 27.4 27.9 25.7 25.0 24.7 24.3 24.1 23.8 23.5 23.9 23.0 22.6 22.5 22.5 22.5 24.2 26.6 28.2 28.6 28.6 28.5 28.7 29.0 28.6 28.3 28.5 28.5 28.5 28.8 29.0 28.9 26.9 27.5 27.3 27.1 27.4 27.3 26.4 25.0
28.1 28.6 28.7 28.7 28.6 28.6 28.8 29.1 28.9 28.8 27.7 26.1 25.8 25.3 24.9 24.6 24.3 24.4 24.1 25.5 27.0 27.3 27.2 27.0 25.6 24.8 24.6 24.7 24.6 24.4 24.4 24.5 24.5 23.9 23.8 23.8 24.1 24.2 26.4 27.3 28.6 29.0 29.2 29.6 29.5 29.5 29.3 29.3 29.1 29.3 29.5 29.6 29.6 26.6 27.1 29.3 26.7 26.7 26.8 27.0 27.2 26.9 26.2
28.5 29.1 29.3 29.3 29.3 29.3 29.5 29.7 29.6 29.3 29.2 28.4 27.2 26.6 25.9 25.0 25.1 25.2 24.8 24.7 26.1 25.6 25.1 24.9 24.5 24.1 24.2 24.6 25.0 26.0 28.1 28.2 28.1 25.5 25.1 25.1 25.1 29.6 29.4 29.3 29.5 29.6 29.9 29.9 29.4 29.2 29.4 29.3 29.9 30.2 30.0 30.0 30.0 29.9 29.8 29.5 29.1 28.7 28.2 27.9 27.6 27.4 27.1
29.3 29.8 30.0 29.8 29.8 29.8 29.9 29.9 29.8 29.3 29.5 29.9 29.7 29.6 29.5 28.9 28.5 27.0 26.3 27.0 27.7 27.1 27.8 27.3 26.9 28.0 26.3 26.4 25.8 25.9 25.8 25.8 25.5 26.4 27.0 28.2 29.0 29.6 29.9 29.7 30.0 29.8 29.3 29.0 29.2 29.2 29.3 29.7 30.0 30.4 30.3 30.1 30.0 30.0 29.8 29.6 29.3 29.1 28.6 28.2 27.9 27.8 27.6
29.8 30.3 30.5 30.5 30.4 30.1 30.0 30.0 29.8 29.5 29.8 30.2 30.1 30.0 30.0 29.7 29.5 29.2 28.9 28.6 28.4 28.3 28.3 28.4 27.8 28.5 29.0 29.3 29.6 29.7 29.8 30.0 30.1 30.1 30.3 30.3 30.2 30.2 30.1 28.7 27.1 26.6 27.8 28.1 28.1 28.5 29.9 30.7 30.6 30.7 30.6 30.4 30.2 30.1 29.9 29.7 29.4 29.2 28.9 28.4 28.3 28.3 28.2
30.1 29.9 29.9 29.8 30.1 30.4 30.4 29.7 29.7 30.0 27.5 28.0 26.4 27.0 29.2 29.9 29.8 29.8 29.6 29.4 28.5 29.1 29.1 29.2 29.3 29.4 29.4 29.6 29.8 30.0 30.1 30.1 30.2 30.3 30.4 30.3 30.3 30.4 30.4 30.5 30.7 30.9 30.9 30.6 30.6 30.5 30.5 30.4 30.8 30.8 30.8 30.6 30.5 30.2 29.9 29.6 29.6 29.4 29.1 28.8 28.8 29.0 28.8
28.6 28.4 28.4 29.2 29.0 28.5 29.5 29.8 28.7 26.1 25.5 25.3 25.2 24.8 24.7 25.0 25.2 25.6 27.9 28.1 27.1 27.4 29.8 29.9 30.0 30.1 30.1 30.2 30.4 30.6 30.8 30.9 31.0 31.1 31.1 30.9 30.8 30.9 31.0 31.1 31.1 31.2 31.2 31.0 30.9 30.8 30.9 31.0 31.1 31.0 30.8 30.7 30.7 30.3 29.7 29.6 29.3 29.5 29.3 29.2 29.4 29.5 29.3
26.7 26.5 26.4 26.9 28.5 27.6 25.9 26.0 25.9 25.9 25.7 25.6 25.6 25.3 25.0 25.0 25.2 25.5 25.5 25.0 26.2 27.8 29.0 30.3 30.6 30.8 30.8 30.9 31.2 31.5 31.5 31.5 31.7 31.9 31.8 31.8 31.7 31.6 31.7 30.9 31.5 31.5 31.3 31.2 31.2 30.9 31.1 31.0 31.1 31.1 30.9 30.7 30.6 30.3 29.9 29.8 29.7 29.6 29.6 29.6 29.7 30.0 29.8
27.0 26.7 26.5 26.4 26.5 27.2 28.1 26.9 26.4 26.4 26.0 25.8 25.6 25.5 25.2 25.1 25.4 25.7 25.8 25.9 25.7 27.7 28.3 29.7 30.7 31.1 31.3 31.5 31.8 31.9 31.9 31.9 32.1 32.2 32.2 32.3 32.4 32.4 32.2 32.1 31.9 31.0 31.5 31.5 31.4 31.2 31.1 31.0 31.0 30.9 30.7 30.5 30.4 30.5 30.4 30.3 30.1 29.9 29.7 29.7 29.9 30.1 29.9
27.4 27.1 27.0 26.8 26.6 26.2 26.6 26.9 26.5 26.2 26.0 25.9 25.7 25.5 25.5 25.2 25.3 25.7 25.9 26.1 28.0 29.4 29.9 30.3 31.1 31.3 31.6 31.8 32.0 32.1 32.1 32.2 32.4 32.4 32.5 32.6 32.7 32.7 32.2 32.2 31.6 30.4 31.7 31.6 31.4 31.4 31.2 31.0 30.7 30.6 30.7 30.6 30.4 30.5 30.6 30.5 30.2 30.0 29.8 29.9 30.1 30.1 29.9
27.5 27.6 27.5 27.3 27.0 27.0 27.0 26.9 26.8 26.7 26.7 26.5 26.4 26.1 25.9 25.9 26.0 25.5 25.6 26.8 29.1 30.3 31.3 31.6 31.8 31.9 32.0 32.1 32.2 32.3 32.4 32.6 32.7 32.7 32.9 32.9 32.8 32.5 32.4 32.3 32.4 32.4 32.3 32.1 31.7 31.5 31.4 31.1 30.8 30.6 30.7 30.7 30.5 30.5 30.6 30.7 30.6 30.4 30.2 30.3 30.4 30.3 30.0
30.2 29.1 28.1 29.0 28.7 28.2 27.8 27.8 27.7 27.6 27.5 27.4 27.1 27.0 26.6 26.3 27.7 28.6 28.9 29.4 29.8 30.4 31.0 31.7 32.0 32.3 32.3 32.3 32.4 32.6 32.7 32.8 33.0 33.0 33.1 33.0 32.8 32.9 33.0 32.9 32.8 32.8 32.6 32.2 32.1 31.9 31.6 31.3 31.0 30.6 30.5 30.5 30.4 30.5 30.8 31.0 30.9 30.8 30.7 30.6 30.5 30.5 30.5
31.1 30.9 30.1 29.1 29.0 28.6 28.4 28.2 28.0 28.0 27.9 27.7 27.4 27.3 27.0 29.7 30.0 30.0 30.6 31.5 31.6 31.8 31.7 31.6 31.9 32.3 32.4 32.5 32.6 32.8 32.9 33.0 33.1 33.2 33.2 33.2 33.3 32.8 32.9 33.2 33.0 32.9 32.7 32.4 32.2 32.0 31.6 31.5 31.2 30.9 30.6 30.5 30.6 30.7 30.9 31.0 30.9 30.9 30.9 30.8 30.8 30.9 30.9